FW5682 Weather Reports


time (UTC)temp
F
wind
direction
speed
knots
gust
knots
rain 1hr
in
rain 24hr
in
rain mn
in
humidity
%
barometer
mb
20260507171232 56 149 5.2 8.7 0.00 0.00 0.00 69 1012.0
20260507170732 56 144 2.6 6.1 0.00 0.00 0.00 70 1012.0
20260507170232 56 137 3.5 6.1 0.00 0.00 0.00 72 1011.9
20260507165731 55 124 5.2 6.1 0.00 0.00 0.00 73 1011.8
20260507165231 54 140 3.5 6.1 0.00 0.00 0.00 74 1012.0
20260507164731 54 144 3.5 6.1 0.00 0.00 0.00 74 1012.0
20260507164231 53 152 2.6 4.3 0.00 0.00 0.00 75 1012.1
20260507163731 53 152 2.6 3.5 0.00 0.00 0.00 75 1012.1
20260507163452 53 152 1.7 4.3 0.00 0.00 0.00 75 1012.2
20260507162730 53 152 1.7 4.3 0.00 0.00 0.00 75 1012.2
20260507162231 53 152 1.7 3.5 0.00 0.00 0.00 75 1012.2
20260507161731 54 154 1.7 6.1 0.00 0.00 0.00 75 1012.2
20260507161456 54 152 2.6 6.1 0.00 0.00 0.00 74 1012.2
20260507160729 54 155 2.6 5.2 0.00 0.00 0.00 75 1012.2
20260507160230 54 158 2.6 5.2 0.00 0.00 0.00 74 1012.3
20260507155730 54 159 2.6 5.2 0.00 0.00 0.00 74 1012.3
20260507155230 54 159 2.6 4.3 0.00 0.00 0.00 74 1012.4
20260507154731 54 161 1.7 3.5 0.00 0.00 0.00 74 1012.3
20260507154230 54 161 1.7 4.3 0.00 0.00 0.00 74 1012.4
20260507153729 54 161 1.7 4.3 0.00 0.00 0.00 73 1012.4
20260507153230 54 161 2.6 4.3 0.00 0.00 0.00 73 1012.4
20260507152729 55 161 1.7 5.2 0.00 0.00 0.00 72 1012.4
20260507152229 55 158 4.3 6.1 0.00 0.00 0.00 71 1012.5
20260507151729 56 147 3.5 6.1 0.00 0.00 0.00 71 1012.6
20260507151229 56 169 1.7 5.2 0.00 0.00 0.00 71 1012.4
20260507150229 56 152 2.6 6.1 0.00 0.00 0.00 69 1012.5
20260507145728 57 127 3.5 6.1 0.00 0.00 0.00 69 1012.5
20260507145449 57 188 4.3 7.8 0.00 0.00 0.00 70 1012.6
20260507144728 57 186 3.5 7.8 0.00 0.00 0.00 71 1012.5
20260507144228 57 195 3.5 8.7 0.00 0.00 0.00 70 1012.6
20260507143728 57 189 5.2 8.7 0.00 0.00 0.00 70 1012.7
20260507143228 57 178 1.7 6.1 0.00 0.00 0.00 71 1012.6
20260507142728 57 154 4.3 9.6 0.00 0.00 0.00 70 1012.7
20260507142228 57 144 3.5 9.6 0.00 0.00 0.00 71 1012.8
20260507141733 56 161 4.3 9.6 0.00 0.00 0.00 70 1012.8
20260507141231 55 173 3.5 8.7 0.00 0.00 0.00 72 1012.9
20260507140733 55 140 3.5 8.7 0.00 0.00 0.00 72 1012.9
20260507140227 55 137 4.3 6.1 0.00 0.00 0.00 73 1013.0
20260507135727 55 196 4.3 6.1 0.00 0.00 0.00 75 1013.1
20260507135227 54 171 3.5 6.1 0.00 0.00 0.00 76 1013.0
20260507134729 54 165 1.7 6.1 0.00 0.00 0.00 76 1013.1
20260507134227 53 164 4.3 7.8 0.00 0.00 0.00 76 1013.1
20260507133726 53 141 5.2 7.8 0.00 0.00 0.00 77 1013.1
20260507133227 53 188 3.5 8.7 0.00 0.00 0.00 76 1013.2
20260507132726 53 169 2.6 8.7 0.00 0.00 0.00 76 1013.2
20260507132226 53 171 4.3 8.7 0.00 0.00 0.00 76 1013.2
20260507131727 52 179 3.5 8.7 0.00 0.00 0.00 77 1013.2
20260507131228 52 159 4.3 8.7 0.00 0.00 0.00 77 1013.3
20260507130951 52 176 3.5 7.8 0.00 0.00 0.00 77 1013.2
20260507130226 52 199 4.3 7.8 0.00 0.00 0.00 77 1013.2
20260507125726 52 180 5.2 7.8 0.00 0.00 0.00 79 1013.4
20260507125227 52 164 2.6 7.8 0.00 0.00 0.00 79 1013.2
20260507124726 52 189 2.6 7.8 0.00 0.00 0.00 79 1013.2
20260507124226 51 162 4.3 6.1 0.00 0.00 0.00 79 1013.3
20260507123726 51 161 3.5 6.1 0.00 0.00 0.00 80 1013.3
20260507123226 51 185 3.5 4.3 0.00 0.00 0.00 81 1013.3
20260507122952 51 180 2.6 5.2 0.00 0.00 0.00 81 1013.3
20260507122225 51 179 1.7 8.7 0.00 0.00 0.00 80 1013.4
20260507121725 51 183 3.5 8.7 0.00 0.00 0.00 80 1013.4
20260507121224 51 165 5.2 8.7 0.00 0.00 0.00 80 1013.5
20260507120724 51 178 4.3 9.6 0.00 0.00 0.00 80 1013.5
20260507120227 51 155 3.5 11.3 0.00 0.00 0.00 80 1013.6
20260507115726 51 214 5.2 11.3 0.00 0.00 0.00 80 1013.5
20260507115224 51 188 2.6 7.8 0.00 0.00 0.00 80 1013.6
20260507114724 51 157 2.6 7.8 0.00 0.00 0.00 80 1013.5
20260507114224 51 147 5.2 7.8 0.00 0.00 0.00 79 1013.5
20260507113724 51 193 3.5 8.7 0.00 0.00 0.00 79 1013.5
20260507113446 51 155 5.2 8.7 0.00 0.00 0.00 79 1013.6
20260507112723 51 199 5.2 10.4 0.00 0.00 0.00 80 1013.6
20260507112222 51 199 4.3 10.4 0.00 0.00 0.00 79 1013.6
20260507111723 51 151 6.1 10.4 0.00 0.00 0.00 79 1013.6
20260507111224 51 193 4.3 10.4 0.00 0.00 0.00 79 1013.6
20260507110723 52 202 4.3 8.7 0.00 0.00 0.00 79 1013.7
20260507110236 52 161 4.3 10.4 0.00 0.00 0.00 79 1013.7
20260507105723 52 182 4.3 10.4 0.00 0.00 0.00 79 1013.7
20260507105223 52 197 3.5 9.6 0.00 0.00 0.00 80 1013.8
20260507104722 52 190 4.3 9.6 0.00 0.00 0.00 81 1013.7
20260507104444 51 171 3.5 10.4 0.00 0.00 0.00 81 1013.7
20260507103944 51 152 5.2 10.4 0.00 0.00 0.00 82 1013.7
20260507103220 51 152 5.2 9.6 0.00 0.00 0.00 82 1013.8
20260507102720 51 148 4.3 8.7 0.00 0.00 0.00 83 1013.8
20260507102220 50 164 5.2 8.7 0.00 0.00 0.00 84 1013.7
20260507101720 50 179 4.3 7.8 0.00 0.00 0.00 84 1013.7
20260507101219 49 182 4.3 7.8 0.00 0.00 0.00 85 1013.7
20260507100719 49 180 3.5 7.8 0.00 0.00 0.00 85 1013.7
20260507100219 49 183 3.5 7.8 0.00 0.00 0.00 86 1013.7
20260507095718 49 151 4.3 7.8 0.00 0.00 0.00 86 1013.8
20260507095218 48 168 2.6 6.1 0.00 0.00 0.00 86 1013.8
20260507094718 48 168 3.5 6.1 0.00 0.00 0.00 86 1013.9
20260507094219 48 175 2.6 5.2 0.00 0.00 0.00 87 1013.7
20260507093718 48 188 3.5 4.3 0.00 0.00 0.00 87 1013.8
20260507093218 47 189 2.6 5.2 0.00 0.00 0.00 88 1013.9
20260507092942 47 193 3.5 5.2 0.00 0.00 0.00 88 1013.7
20260507092442 47 158 2.6 6.1 0.00 0.00 0.00 88 1013.7
20260507091718 46 155 2.6 6.1 0.00 0.00 0.00 89 1013.7
20260507091218 46 155 3.5 6.1 0.00 0.00 0.00 89 1013.7
20260507090718 46 186 3.5 6.1 0.00 0.00 0.00 89 1013.7
20260507090218 46 159 4.3 5.2 0.00 0.00 0.00 89 1013.7
20260507085717 45 161 2.6 3.5 0.00 0.00 0.00 89 1013.7
20260507085217 45 159 1.7 4.3 0.00 0.00 0.00 89 1013.8
20260507084941 45 159 3.5 4.3 0.00 0.00 0.00 89 1013.7
20260507084217 45 161 2.6 4.3 0.00 0.00 0.00 89 1013.7
20260507083717 45 154 2.6 5.2 0.00 0.00 0.00 89 1013.8
20260507083217 44 152 2.6 5.2 0.00 0.00 0.00 89 1013.8
20260507082714 44 152 2.6 5.2 0.00 0.00 0.00 89 1013.6
20260507082214 44 152 2.6 5.2 0.00 0.00 0.00 89 1013.7
20260507081937 44 154 1.7 5.2 0.00 0.00 0.00 89 1013.7
20260507081215 44 158 2.6 5.2 0.00 0.00 0.00 89 1013.7
20260507080712 44 158 2.6 5.2 0.00 0.00 0.00 89 1013.7
20260507080212 44 159 4.3 5.2 0.00 0.00 0.00 89 1013.7
20260507075713 44 147 3.5 5.2 0.00 0.00 0.00 89 1013.7
20260507075212 44 147 3.5 6.1 0.00 0.00 0.00 89 1013.7
20260507074710 44 149 1.7 6.1 0.00 0.00 0.00 89 1013.7
20260507074208 44 155 3.5 7.8 0.00 0.00 0.00 90 1013.7
20260507073707 44 147 3.5 7.8 0.00 0.00 0.00 90 1013.7
20260507073213 43 141 3.5 5.2 0.00 0.00 0.00 90 1013.6
20260507072709 43 121 3.5 5.2 0.00 0.00 0.00 90 1013.7
20260507072207 43 161 3.5 5.2 0.00 0.00 0.00 90 1013.7
20260507071706 43 155 2.6 3.5 0.00 0.00 0.00 91 1013.7
20260507071206 43 154 1.7 5.2 0.00 0.00 0.00 91 1013.7
20260507070706 42 154 2.6 5.2 0.00 0.00 0.00 91 1013.6
20260507070205 42 159 2.6 4.3 0.00 0.00 0.00 91 1013.6
20260507065706 42 159 3.5 5.2 0.00 0.00 0.00 92 1013.5
20260507065205 42 161 2.6 5.2 0.00 0.00 0.00 92 1013.6
20260507064705 42 162 3.5 4.3 0.00 0.00 0.00 92 1013.5
20260507064205 41 159 3.5 4.3 0.00 0.00 0.00 92 1013.5
20260507063706 41 157 2.6 5.2 0.00 0.00 0.00 92 1013.5
20260507063207 41 158 2.6 5.2 0.00 0.00 0.00 93 1013.5
20260507062705 40 157 2.6 4.3 0.00 0.00 0.00 93 1013.5
20260507062206 40 158 2.6 4.3 0.00 0.00 0.00 93 1013.5
20260507061705 40 158 3.5 5.2 0.00 0.00 0.00 93 1013.4
20260507061205 40 158 3.5 5.2 0.00 0.00 0.00 93 1013.5
20260507060706 40 117 1.7 2.6 0.00 0.00 0.00 93 1013.3
20260507060205 39 116 1.7 4.3 0.00 0.00 0.00 93 1013.3
20260507055705 39 116 1.7 4.3 0.00 0.00 0.00 93 1013.3
20260507055205 39 114 3.5 4.3 0.00 0.00 0.00 93 1013.3
20260507054706 39 111 1.7 3.5 0.00 0.00 0.00 93 1013.3
20260507054205 39 111 1.7 3.5 0.00 0.00 0.00 93 1013.3
20260507053705 39 111 2.6 3.5 0.00 0.00 0.00 93 1013.3
20260507053205 39 110 1.7 3.5 0.00 0.00 0.00 93 1013.2
20260507052705 39 110 1.7 3.5 0.00 0.00 0.00 93 1013.2
20260507052209 39 109 1.7 3.5 0.00 0.00 0.00 93 1013.1
20260507051707 39 109 0.9 3.5 0.00 0.00 0.00 94 1013.1
20260507051205 39 109 1.7 2.6 0.00 0.00 0.00 94 1013.2
20260507050709 39 107 1.7 2.6 0.00 0.00 0.00 94 1013.1
20260507050205 39 107 1.7 2.6 0.00 0.00 0.00 94 1013.2
20260507045704 38 107 0.9 2.6 0.00 0.00 0.00 94 1013.2
20260507045205 38 107 1.7 2.6 0.00 0.00 0.00 94 1013.2
20260507044705 38 107 0.9 1.7 0.00 0.00 0.00 94 1013.2
20260507044205 38 107 0.9 1.7 0.00 0.00 0.00 94 1013.2
20260507043933 38 107 0.9 1.7 0.00 0.00 0.00 94 1013.1
20260507043205 38 107 0.0 1.7 0.00 0.00 0.00 94 1013.1
20260507042926 38 107 0.0 2.6 0.00 0.00 0.00 94 1013.2
20260507042206 38 107 0.9 2.6 0.00 0.00 0.00 94 1013.2
20260507041705 37 107 1.7 1.7 0.00 0.00 0.00 94 1013.1
20260507041205 37 107 0.9 1.7 0.00 0.00 0.00 94 1013.1
20260507040705 37 107 0.0 1.7 0.00 0.00 0.00 93 1013.2
20260507040427 37 107 0.0 1.7 0.00 0.00 0.00 93 1013.2
20260507035704 37 107 0.9 1.7 0.00 0.00 0.00 93 1013.2
20260507035205 37 107 0.0 1.7 0.00 0.00 0.00 93 1013.1
20260507034706 37 107 0.9 1.7 0.00 0.00 0.00 93 1013.3
20260507034206 36 107 0.0 1.7 0.00 0.00 0.00 93 1013.1
20260507033705 36 107 0.9 1.7 0.00 0.00 0.00 93 1013.2
20260507032705 36 107 0.9 1.7 0.00 0.00 0.00 93 1013.2
20260507032204 36 107 0.0 1.7 0.00 0.00 0.00 93 1013.3
20260507031924 36 107 0.9 1.7 0.00 0.00 0.00 93 1013.3
20260507031205 36 107 0.0 0.0 0.00 0.00 0.00 93 1013.3
20260507030932 35 107 0.0 0.0 0.00 0.00 0.00 93 1013.3
20260507030205 35 107 0.0 0.0 0.00 0.00 0.00 93 1013.4
20260507025930 35 107 0.0 0.0 0.00 0.00 0.00 93 1013.4
20260507025201 35 107 0.0 0.0 0.00 0.00 0.00 93 1013.3
20260507024705 35 107 0.0 0.9 0.00 0.00 0.00 93 1013.4
20260507023704 35 107 0.9 0.9 0.00 0.00 0.00 92 1013.5
20260507023206 35 107 0.9 0.9 0.00 0.00 0.00 92 1013.4
20260507022705 34 107 0.0 1.7 0.00 0.00 0.00 92 1013.4
20260507022204 34 107 0.9 1.7 0.00 0.00 0.00 92 1013.3
20260507021705 34 107 0.0 0.9 0.00 0.00 0.00 92 1013.3
20260507021205 34 107 0.0 1.7 0.00 0.00 0.00 92 1013.3
20260507020705 34 107 0.9 1.7 0.00 0.00 0.00 92 1013.4
20260507020204 34 107 0.0 0.0 0.00 0.00 0.00 92 1013.4
20260507015705 34 107 0.0 0.0 0.00 0.00 0.00 92 1013.4
20260507015204 34 107 0.0 0.9 0.00 0.00 0.00 91 1013.4
20260507014704 34 107 0.0 1.7 0.00 0.00 0.00 91 1013.4
20260507014205 34 107 0.9 1.7 0.00 0.00 0.00 91 1013.5
20260507013705 34 107 0.9 1.7 0.00 0.00 0.00 91 1013.4
20260507013205 34 107 1.7 1.7 0.00 0.00 0.00 91 1013.4
20260507012704 34 107 1.7 1.7 0.00 0.00 0.00 91 1013.6
20260507012204 34 107 0.0 1.7 0.00 0.00 0.00 91 1013.6
20260507011705 34 107 0.0 1.7 0.00 0.00 0.00 91 1013.6
20260507011423 34 107 0.9 1.7 0.00 0.00 0.00 91 1013.4
20260507010707 34 107 0.9 1.7 0.00 0.00 0.00 91 1013.5
20260507010205 34 107 1.7 1.7 0.00 0.00 0.00 91 1013.6
20260507005705 34 107 0.0 1.7 0.00 0.00 0.00 91 1013.5
20260507005204 35 107 0.9 1.7 0.00 0.00 0.00 91 1013.6
20260507004705 35 107 0.9 1.7 0.00 0.00 0.00 91 1013.6
20260507004205 35 107 0.9 1.7 0.00 0.00 0.00 91 1013.6
20260507003705 35 107 0.9 1.7 0.00 0.00 0.00 90 1013.6
20260507003205 35 107 0.0 0.9 0.00 0.00 0.00 90 1013.6
20260507002705 35 107 0.0 1.7 0.00 0.00 0.00 91 1013.6
20260507002205 35 107 0.0 1.7 0.00 0.00 0.00 91 1013.6
20260507001706 35 107 0.9 1.7 0.00 0.00 0.00 90 1013.6
20260507001205 35 107 0.9 1.7 0.00 0.00 0.00 90 1013.6
20260507000704 35 107 0.9 1.7 0.00 0.00 0.00 90 1013.7
20260507000205 35 107 0.9 1.7 0.00 0.00 0.00 90 1013.7
20260506235705 35 107 1.7 1.7 0.00 0.00 0.00 90 1013.8
20260506235205 35 107 0.0 0.9 0.00 0.00 0.00 90 1013.8
20260506234705 36 107 0.0 0.9 0.00 0.00 0.00 90 1013.9
20260506234204 36 107 0.0 0.9 0.00 0.00 0.00 90 1013.9
20260506233923 36 107 0.0 0.9 0.00 0.00 0.00 90 1013.9
20260506233205 36 107 0.0 0.9 0.00 0.00 0.00 89 1013.9
20260506232707 36 107 0.0 0.0 0.00 0.00 0.00 89 1013.9
20260506232210 36 107 0.0 0.0 0.00 0.00 0.00 89 1013.9
20260506231928 36 107 0.0 0.9 0.00 0.00 0.00 89 1013.9
20260506231434 36 107 0.0 0.9 0.00 0.00 0.00 89 1013.9
20260506230705 36 107 0.0 0.9 0.00 0.00 0.00 89 1013.9
20260506230206 36 107 0.0 0.0 0.00 0.00 0.00 89 1013.9
20260506225704 37 107 0.0 0.0 0.00 0.00 0.00 88 1014.0
20260506225433 37 107 0.0 0.0 0.00 0.00 0.00 88 1013.9
20260506224919 37 107 0.0 0.0 0.00 0.00 0.00 88 1013.9
20260506224202 37 107 0.0 0.0 0.00 0.00 0.00 88 1013.9
20260506223700 37 107 0.0 0.0 0.00 0.00 0.00 88 1013.9
20260506223421 38 107 0.0 0.9 0.00 0.00 0.00 88 1013.9
20260506222658 38 107 0.0 1.7 0.00 0.00 0.00 87 1013.8
20260506222159 38 107 0.9 1.7 0.00 0.00 0.00 87 1013.8
20260506221657 38 107 1.7 1.7 0.00 0.00 0.00 87 1013.8
20260506221155 38 107 0.9 1.7 0.00 0.00 0.00 87 1013.7
20260506220658 38 107 0.0 1.7 0.00 0.00 0.00 86 1013.7
20260506220422 38 107 0.0 0.0 0.00 0.00 0.00 86 1013.7
20260506215656 38 107 0.0 0.0 0.00 0.00 0.00 85 1013.8
20260506215156 39 107 0.0 0.0 0.00 0.00 0.00 85 1013.7
20260506214914 39 107 0.0 0.9 0.00 0.00 0.00 84 1013.8
20260506214157 39 107 0.9 1.7 0.00 0.00 0.00 84 1013.7
20260506213656 39 107 0.9 1.7 0.00 0.00 0.00 83 1013.6
20260506213414 40 107 0.9 1.7 0.00 0.00 0.00 83 1013.7
20260506212652 40 107 0.9 2.6 0.00 0.00 0.00 82 1013.7
20260506212151 40 107 0.9 2.6 0.00 0.00 0.00 82 1013.7
20260506211648 41 107 1.7 2.6 0.00 0.00 0.00 82 1013.8
20260506211145 41 107 1.7 2.6 0.00 0.00 0.00 82 1013.7
20260506210907 41 107 0.9 2.6 0.00 0.00 0.00 82 1013.8
20260506210144 42 107 0.9 2.6 0.00 0.00 0.00 81 1013.9
20260506205913 42 107 1.7 2.6 0.00 0.00 0.00 81 1013.9
20260506205142 42 107 0.9 2.6 0.00 0.00 0.00 81 1013.8
20260506204642 42 107 1.7 3.5 0.00 0.00 0.00 80 1013.8
20260506204143 43 107 2.6 3.5 0.00 0.00 0.00 80 1013.8
20260506203641 43 107 1.7 4.3 0.00 0.00 0.00 79 1013.7
20260506203138 43 107 1.7 4.3 0.00 0.00 0.00 79 1013.8
20260506202638 43 107 1.7 4.3 0.00 0.00 0.00 79 1013.8
20260506202138 44 109 2.6 8.7 0.00 0.00 0.00 79 1013.6
20260506201638 44 110 2.6 8.7 0.00 0.00 0.00 79 1013.6
20260506201136 44 117 4.3 6.1 0.00 0.00 0.00 79 1013.4
20260506200637 44 117 3.5 7.8 0.00 0.00 0.00 78 1013.3
20260506200135 45 111 4.3 7.8 0.00 0.00 0.00 78 1013.4
20260506195634 45 123 4.3 6.1 0.00 0.00 0.00 78 1013.4
20260506195134 45 123 4.3 8.7 0.00 0.00 0.00 77 1013.4
20260506194634 45 133 4.3 8.7 0.00 0.00 0.00 77 1013.3
20260506194133 45 123 5.2 8.7 0.00 0.00 0.00 77 1013.3
20260506193858 46 86 3.5 8.7 0.00 0.00 0.00 77 1013.3
20260506193135 46 87 5.2 10.4 0.00 0.00 0.00 76 1013.3
20260506192634 46 104 3.5 10.4 0.00 0.00 0.00 75 1013.2
20260506192134 47 96 4.3 10.4 0.00 0.00 0.00 75 1013.2
20260506191634 47 65 6.1 10.4 0.00 0.00 0.00 75 1013.1
20260506191135 47 100 4.3 8.7 0.00 0.00 0.00 75 1012.9
20260506190633 48 113 4.3 9.6 0.00 0.00 0.00 74 1012.9
20260506190134 48 92 6.1 9.6 0.00 0.00 0.00 74 1013.0
20260506185634 48 76 5.2 9.6 0.00 0.00 0.00 74 1012.9
20260506185135 48 113 5.2 9.6 0.00 0.00 0.00 74 1013.0
20260506184633 48 116 6.1 8.7 0.00 0.00 0.00 74 1013.0
20260506184133 48 83 4.3 8.7 0.00 0.00 0.00 73 1013.0
20260506183634 48 133 5.2 8.7 0.00 0.00 0.00 72 1013.0
20260506183134 48 90 5.2 7.8 0.00 0.00 0.00 71 1013.0
20260506182634 49 109 2.6 7.8 0.00 0.00 0.00 71 1012.9
20260506182133 49 83 3.5 6.1 0.00 0.00 0.00 70 1012.8
20260506181634 49 120 2.6 4.3 0.00 0.00 0.00 71 1012.9
20260506181134 49 121 3.5 4.3 0.00 0.00 0.00 70 1012.8
20260506180634 49 118 2.6 4.3 0.00 0.00 0.00 71 1012.8
20260506180135 49 120 2.6 4.3 0.00 0.00 0.00 70 1012.8
20260506175634 49 120 1.7 5.2 0.00 0.00 0.00 69 1012.9
20260506175134 49 120 3.5 5.2 0.00 0.00 0.00 70 1012.9
20260506174634 49 121 3.5 5.2 0.00 0.00 0.00 70 1012.8
20260506174134 49 107 1.7 6.1 0.00 0.00 0.00 70 1012.7
20260506173634 49 99 3.5 6.1 0.00 0.00 0.00 69 1012.7
20260506173135 50 93 1.7 3.5 0.00 0.00 0.00 71 1012.7
20260506172634 49 89 1.7 6.1 0.00 0.00 0.00 70 1012.7
20260506172354 49 86 2.6 6.1 0.00 0.00 0.00 69 1012.7
20260506171857 49 89 3.5 5.2 0.00 0.00 0.00 71 1012.7